Date,TemperatureHighF,TemperatureAvgF,TemperatureLowF,DewpointHighF,DewpointAvgF,DewpointLowF,HumidityHigh,HumidityAvg,HumidityLow,PressureMaxIn,PressureMinIn,WindSpeedMaxMPH,WindSpeedAvgMPH,GustSpeedMaxMPH,PrecipitationSumIn
2013-6-1,64.3,58.5,54.5,54.6,50.5,47.4,88,75,55,29.91,29.52,8,3,15,0.01
2013-6-2,68.3,58.2,51.5,49.0,46.6,43.7,85,67,43,30.01,29.89,1,0,14,0.00
2013-6-3,74.6,62.8,48.9,55.0,50.2,46.4,91,66,42,29.94,29.70,6,2,13,0.00
2013-6-4,72.4,65.6,58.1,64.4,59.7,54.9,93,82,72,29.85,29.75,3,0,7,0.05
2013-6-5,74.9,65.6,58.9,63.1,53.5,48.3,91,67,44,29.92,29.82,4,1,11,0.00
2013-6-6,73.1,64.1,54.9,57.1,51.8,49.3,84,66,47,29.88,29.82,3,1,9,0.00
2013-6-7,74.5,63.3,53.5,54.1,51.4,49.2,87,67,47,29.92,29.77,2,0,5,0.00
2013-6-8,70.1,61.9,56.5,63.4,56.9,50.5,95,84,72,29.77,29.53,5,1,11,0.88
2013-6-9,69.5,63.2,59.8,61.7,59.2,57.0,95,87,72,29.69,29.57,4,1,10,0.20
2013-6-10,78.1,67.1,58.0,66.7,61.0,55.5,94,82,64,29.77,29.63,4,1,10,0.00
2013-6-11,88.3,76.8,67.6,73.0,67.2,63.6,88,74,49,29.69,29.54,2,0,7,0.00
2013-6-12,89.5,78.1,63.9,72.5,65.8,53.9,82,67,50,29.87,29.51,6,2,17,0.00
2013-6-13,80.7,68.8,58.6,63.2,57.2,53.6,85,68,42,29.96,29.82,1,0,11,0.01
2013-6-14,88.6,72.6,64.1,73.0,65.1,59.0,95,78,60,29.90,29.62,7,2,17,1.23
2013-6-15,82.3,73.5,66.2,70.8,66.2,62.8,95,79,56,29.81,29.67,4,0,9,0.01
2013-6-16,88.2,76.9,67.6,70.0,64.4,57.9,95,69,40,29.84,29.78,2,0,7,0.00
2013-6-17,89.5,78.6,67.0,62.0,59.4,55.8,77,54,34,29.87,29.78,2,0,7,0.00
2013-6-18,82.9,73.2,64.8,68.0,59.7,51.8,93,65,37,29.93,29.82,1,0,1,0.24
2013-6-19,86.4,75.5,64.1,69.0,63.5,57.1,88,68,47,29.87,29.74,7,2,12,0.00
2013-6-20,89.9,80.4,68.8,73.9,70.1,65.2,90,72,56,29.81,29.64,8,3,16,0.00
2013-6-21,94.0,85.0,77.8,77.2,72.9,71.0,81,68,52,29.71,29.59,6,2,18,0.00
2013-6-22,91.0,82.1,72.4,74.0,68.2,61.6,77,64,50,29.84,29.61,8,1,13,0.01
2013-6-23,81.0,74.3,65.2,71.3,67.6,62.8,93,80,66,29.78,29.59,3,0,8,0.35
2013-6-24,81.5,74.6,74.2,73.9,68.1,-99.9,90,84,77,29.77,29.59,1,-20,9,0.04
2013-6-25,86.5,79.5,71.2,76.1,71.1,66.5,89,76,61,29.66,29.50,6,1,10,0.06
2013-6-26,92.4,84.0,75.4,73.9,66.5,60.8,92,58,37,29.72,29.53,4,1,10,0.00
2013-6-27,84.3,74.7,69.3,71.7,67.6,64.9,93,79,62,29.84,29.71,2,0,7,0.23
2013-6-28,86.9,77.8,69.2,67.0,60.7,55.6,87,59,36,29.84,29.73,8,2,16,0.00
2013-6-29,81.5,73.5,66.3,61.1,57.4,55.0,71,58,45,29.80,29.73,9,2,17,0.00
2013-6-30,82.1,70.2,60.3,58.2,55.6,51.1,86,62,40,29.97,29.80,2,0,5,0.04